THY2MT LTBS-LTFM

Flight info

Callsign THY2MT
Flight time 1h 0m
Altitude 41000
Route RIVBU1J/01 RIVBU DCT BAGLU DCT ATGIT UT58 KFK/N0484F400 UM855 SISPI
Aircraft A359/H-SDE2E3GHIJ3J4J5LM1ORWXY/LB1D1

Departure

Time 2026-04-26 19:38
Airport Dalaman International Airport (LTBS)

Arrival

Time 2026-04-26 20:38
Airport İstanbul Airport (LTFM)
Time Latitude Longitude Altitude Speed Heading
2026-04-26 19:06 36.72045 28.78966 21 ft 0 kts 284°
2026-04-26 19:29 36.72045 28.78965 21 ft 0 kts 284°
2026-04-26 19:29 36.72044 28.78960 21 ft 1 kts 265°
2026-04-26 19:29 36.72038 28.78955 22 ft 1 kts 226°
2026-04-26 19:30 36.72028 28.78957 20 ft 1 kts 170°
2026-04-26 19:30 36.72024 28.78970 23 ft 2 kts 109°
2026-04-26 19:30 36.72011 28.79032 21 ft 13 kts 105°
2026-04-26 19:30 36.71998 28.79071 21 ft 0 kts 126°
2026-04-26 19:31 36.71989 28.79072 23 ft 1 kts 176°
2026-04-26 19:31 36.71986 28.79069 22 ft 0 kts 197°
2026-04-26 19:32 36.71978 28.79065 22 ft 4 kts 206°
2026-04-26 19:33 36.71937 28.79029 22 ft 9 kts 189°
2026-04-26 19:33 36.71892 28.79091 21 ft 13 kts 104°
2026-04-26 19:33 36.71858 28.79204 21 ft 14 kts 141°
2026-04-26 19:33 36.71762 28.79190 22 ft 16 kts 195°
2026-04-26 19:34 36.71648 28.79151 21 ft 19 kts 195°
2026-04-26 19:34 36.71514 28.79106 21 ft 21 kts 195°
2026-04-26 19:34 36.71363 28.79055 22 ft 22 kts 194°
2026-04-26 19:34 36.71222 28.79007 22 ft 22 kts 195°
2026-04-26 19:35 36.71068 28.78954 20 ft 24 kts 195°
2026-04-26 19:35 36.70899 28.78896 19 ft 26 kts 195°
2026-04-26 19:35 36.70715 28.78833 22 ft 28 kts 194°
2026-04-26 19:35 36.70517 28.78767 20 ft 30 kts 195°
2026-04-26 19:36 36.70355 28.78712 23 ft 24 kts 195°
2026-04-26 19:36 36.70300 28.78694 23 ft 24 kts 195°
2026-04-26 19:36 36.70092 28.78642 23 ft 14 kts 159°
2026-04-26 19:36 36.70058 28.78747 22 ft 15 kts 82°
2026-04-26 19:37 36.70126 28.78843 22 ft 16 kts 21°
2026-04-26 19:37 36.70262 28.78893 22 ft 39 kts 15°
2026-04-26 19:37 36.70781 28.79070 21 ft 113 kts 15°
2026-04-26 19:37 36.71739 28.79399 149 ft 162 kts 17°
2026-04-26 19:38 36.72840 28.79806 863 ft 168 kts 20°
2026-04-26 19:38 36.73877 28.80493 1652 ft 164 kts 32°
2026-04-26 19:38 36.74827 28.81273 2203 ft 165 kts 31°
2026-04-26 19:38 36.75801 28.82082 2695 ft 171 kts 31°
2026-04-26 19:39 36.76803 28.82923 3150 ft 178 kts 31°
2026-04-26 19:39 36.77856 28.83809 3571 ft 187 kts 31°
2026-04-26 19:39 36.78967 28.84728 3998 ft 198 kts 32°
2026-04-26 19:39 36.80158 28.85685 4392 ft 214 kts 31°
2026-04-26 19:40 36.81460 28.86697 4823 ft 227 kts 30°
2026-04-26 19:40 36.82958 28.87596 5163 ft 244 kts 22°
2026-04-26 19:40 36.84549 28.88374 5596 ft 253 kts 20°
2026-04-26 19:40 36.86211 28.89152 6207 ft 257 kts 20°
2026-04-26 19:41 36.87899 28.89922 6817 ft 260 kts 19°
2026-04-26 19:41 36.89608 28.90701 7432 ft 264 kts 20°
2026-04-26 19:41 36.91344 28.91494 8035 ft 266 kts 20°
2026-04-26 19:41 36.91930 28.91761 8262 ft 266 kts 20°
2026-04-26 19:42 36.94857 28.93095 9331 ft 272 kts 20°
2026-04-26 19:42 36.96643 28.93910 9991 ft 275 kts 20°
2026-04-26 19:42 36.98472 28.94748 10403 ft 287 kts 20°
2026-04-26 19:42 37.00395 28.95633 10674 ft 302 kts 21°
2026-04-26 19:43 37.01692 28.96353 10835 ft 312 kts 29°
2026-04-26 19:43 37.03540 28.97887 11090 ft 326 kts 37°
2026-04-26 19:43 37.05379 28.99639 11330 ft 338 kts 37°
2026-04-26 19:43 37.07266 29.01459 11746 ft 345 kts 37°
2026-04-26 19:44 37.09176 29.03294 12241 ft 348 kts 37°
2026-04-26 19:44 37.11110 29.05148 12750 ft 351 kts 37°
2026-04-26 19:44 37.13059 29.07014 13268 ft 354 kts 37°
2026-04-26 19:44 37.15003 29.08933 13722 ft 358 kts 40°
2026-04-26 19:45 37.16824 29.11090 14130 ft 362 kts 44°
2026-04-26 19:45 37.18604 29.13336 14544 ft 364 kts 44°
2026-04-26 19:45 37.20387 29.15600 15007 ft 366 kts 45°
2026-04-26 19:45 37.22185 29.17881 15468 ft 368 kts 44°
2026-04-26 19:46 37.23993 29.20174 15942 ft 371 kts 44°
2026-04-26 19:46 37.25811 29.22479 16408 ft 373 kts 44°
2026-04-26 19:46 37.27642 29.24801 16883 ft 375 kts 44°
2026-04-26 19:46 37.29513 29.27095 17392 ft 377 kts 41°
2026-04-26 19:47 37.31615 29.29072 17794 ft 380 kts 31°
2026-04-26 19:47 37.33175 29.30077 18084 ft 381 kts 23°
2026-04-26 19:47 37.36607 29.31236 18613 ft 385 kts
2026-04-26 19:47 37.39289 29.31517 18994 ft 388 kts
2026-04-26 19:48 37.41996 29.31616 19387 ft 390 kts
2026-04-26 19:48 37.44723 29.31631 19772 ft 393 kts
2026-04-26 19:48 37.47464 29.31620 20156 ft 395 kts
2026-04-26 19:48 37.50216 29.31615 20532 ft 397 kts
2026-04-26 19:49 37.52983 29.31627 20910 ft 399 kts
2026-04-26 19:49 37.55766 29.31655 21283 ft 401 kts
2026-04-26 19:49 37.58564 29.31694 21623 ft 403 kts
2026-04-26 19:49 37.61376 29.31740 21980 ft 405 kts
2026-04-26 19:50 37.64201 29.31789 22328 ft 407 kts
2026-04-26 19:50 37.67040 29.31840 22679 ft 409 kts
2026-04-26 19:50 37.69895 29.31890 23035 ft 411 kts
2026-04-26 19:50 37.72763 29.31941 23391 ft 413 kts
2026-04-26 19:51 37.75643 29.31990 23726 ft 415 kts
2026-04-26 19:51 37.78536 29.32039 24025 ft 416 kts
2026-04-26 19:51 37.81400 29.32088 24332 ft 418 kts
2026-04-26 19:51 37.84309 29.32138 24632 ft 419 kts
2026-04-26 19:52 37.87230 29.32188 24925 ft 420 kts
2026-04-26 19:52 37.90159 29.32238 25242 ft 422 kts
2026-04-26 19:52 37.93099 29.32289 25539 ft 423 kts
2026-04-26 19:52 37.96048 29.32393 25832 ft 425 kts
2026-04-26 19:53 37.98978 29.32896 26161 ft 426 kts 12°
2026-04-26 19:53 38.01833 29.33933 26473 ft 428 kts 20°
2026-04-26 19:53 38.04533 29.35542 26804 ft 431 kts 29°
2026-04-26 19:53 38.06997 29.37717 27162 ft 434 kts 39°
2026-04-26 19:54 38.09148 29.40417 27521 ft 438 kts 48°
2026-04-26 19:54 38.10924 29.43579 27811 ft 444 kts 58°
2026-04-26 19:54 38.12255 29.47137 28124 ft 450 kts 68°
2026-04-26 19:54 38.13165 29.50957 28500 ft 453 kts 71°
2026-04-26 19:55 38.14181 29.54736 28891 ft 454 kts 68°
2026-04-26 19:55 38.15250 29.58509 29353 ft 454 kts 68°
2026-04-26 19:55 38.16344 29.62288 29749 ft 457 kts 67°
2026-04-26 19:55 38.17467 29.66075 30118 ft 459 kts 67°
2026-04-26 19:56 38.18626 29.69872 30432 ft 462 kts 65°
2026-04-26 19:56 38.20053 29.73526 30734 ft 462 kts 57°
2026-04-26 19:56 38.21874 29.76888 31030 ft 463 kts 49°
2026-04-26 19:56 38.24003 29.79977 31259 ft 466 kts 45°
2026-04-26 19:57 38.26227 29.82986 31610 ft 467 kts 44°
2026-04-26 19:57 38.28483 29.85942 32036 ft 467 kts 44°
2026-04-26 19:57 38.30763 29.88895 32365 ft 468 kts 43°
2026-04-26 19:57 38.33052 29.91857 32623 ft 471 kts 43°
2026-04-26 19:58 38.35350 29.94844 32910 ft 473 kts 43°
2026-04-26 19:58 38.37656 29.97858 33106 ft 478 kts 43°
2026-04-26 19:58 38.39974 30.00902 33421 ft 478 kts 43°
2026-04-26 19:58 38.42282 30.03944 33890 ft 476 kts 43°
2026-04-26 19:59 38.44577 30.06976 34297 ft 474 kts 43°
2026-04-26 19:59 38.46869 30.10007 34616 ft 474 kts 43°
2026-04-26 19:59 38.49161 30.13040 34913 ft 475 kts 44°
2026-04-26 19:59 38.51451 30.16072 35002 ft 474 kts 43°
2026-04-26 20:00 38.56029 30.22143 35022 ft 475 kts 43°
2026-04-26 20:00 38.60611 30.28229 35019 ft 476 kts 44°
2026-04-26 20:01 38.65619 30.33589 35023 ft 471 kts 30°
2026-04-26 20:01 38.71573 30.36894 35026 ft 466 kts 12°
2026-04-26 20:02 38.77985 30.37596 35023 ft 464 kts 354°
2026-04-26 20:02 38.83273 30.36217 35020 ft 463 kts 345°
2026-04-26 20:03 38.90456 30.33426 35017 ft 465 kts 342°
2026-04-26 20:03 38.96643 30.30984 35020 ft 465 kts 343°
2026-04-26 20:04 39.02845 30.28628 35024 ft 465 kts 343°
2026-04-26 20:04 39.09064 30.26307 35025 ft 466 kts 343°
2026-04-26 20:05 39.15301 30.23984 35025 ft 467 kts 343°
2026-04-26 20:05 39.21556 30.21645 35027 ft 468 kts 343°
2026-04-26 20:06 39.27802 30.19302 35024 ft 468 kts 343°
2026-04-26 20:06 39.34053 30.16953 35025 ft 468 kts 343°
2026-04-26 20:07 39.40316 30.14594 35028 ft 469 kts 343°
2026-04-26 20:07 39.46528 30.12052 35035 ft 468 kts 338°
2026-04-26 20:08 39.52548 30.08841 35032 ft 468 kts 336°
2026-04-26 20:08 39.58541 30.05505 35031 ft 469 kts 336°
2026-04-26 20:09 39.64529 30.02143 35029 ft 469 kts 336°
2026-04-26 20:09 39.70519 29.98784 35033 ft 469 kts 336°
2026-04-26 20:10 39.76508 29.95428 35044 ft 469 kts 336°
2026-04-26 20:10 39.82496 29.92069 35033 ft 469 kts 336°
2026-04-26 20:11 39.88437 29.88724 35031 ft 469 kts 336°
2026-04-26 20:12 39.97961 29.85607 35036 ft 471 kts 349°
2026-04-26 20:12 40.04385 29.84256 34961 ft 468 kts 349°
2026-04-26 20:12 40.07586 29.83580 34322 ft 466 kts 349°
2026-04-26 20:13 40.10787 29.82901 33944 ft 470 kts 349°
2026-04-26 20:13 40.14037 29.82210 33611 ft 473 kts 349°
2026-04-26 20:13 40.17292 29.81516 33283 ft 475 kts 349°
2026-04-26 20:13 40.20559 29.80820 32973 ft 476 kts 349°
2026-04-26 20:14 40.23831 29.80123 32575 ft 475 kts 349°
2026-04-26 20:14 40.27090 29.79431 32017 ft 473 kts 349°
2026-04-26 20:14 40.30335 29.78817 31487 ft 471 kts 353°
2026-04-26 20:14 40.33604 29.78755 31001 ft 469 kts
2026-04-26 20:15 40.36821 29.79456 30504 ft 469 kts 13°
2026-04-26 20:15 40.39880 29.80912 30001 ft 469 kts 23°
2026-04-26 20:15 40.42705 29.83057 29442 ft 469 kts 31°
2026-04-26 20:15 40.45383 29.85470 28881 ft 465 kts 31°
2026-04-26 20:16 40.48192 29.87485 28330 ft 457 kts 20°
2026-04-26 20:16 40.51223 29.88570 27790 ft 449 kts
2026-04-26 20:16 40.54312 29.88632 27275 ft 442 kts 352°
2026-04-26 20:16 40.57344 29.88101 26762 ft 438 kts 348°
2026-04-26 20:17 40.60279 29.87124 26256 ft 434 kts 341°
2026-04-26 20:17 40.63118 29.85836 25780 ft 430 kts 338°
2026-04-26 20:17 40.65911 29.84461 25275 ft 427 kts 338°
2026-04-26 20:17 40.67744 29.83535 24955 ft 425 kts 337°
2026-04-26 20:18 40.71316 29.81370 24304 ft 420 kts 328°
2026-04-26 20:18 40.73677 29.79134 23867 ft 416 kts 318°
2026-04-26 20:18 40.75779 29.76536 23469 ft 413 kts 315°
2026-04-26 20:18 40.77813 29.73867 23099 ft 411 kts 314°
2026-04-26 20:19 40.79825 29.71195 22747 ft 409 kts 314°
2026-04-26 20:19 40.81819 29.68534 22411 ft 407 kts 314°
2026-04-26 20:19 40.83803 29.65881 22061 ft 405 kts 314°
2026-04-26 20:19 40.85773 29.63243 21729 ft 402 kts 314°
2026-04-26 20:20 40.87708 29.60649 21397 ft 400 kts 314°
2026-04-26 20:20 40.89700 29.58096 21060 ft 399 kts 319°
2026-04-26 20:20 40.91957 29.55978 20725 ft 398 kts 329°
2026-04-26 20:20 40.94508 29.54585 20413 ft 398 kts 343°
2026-04-26 20:21 40.97224 29.53886 20093 ft 397 kts 349°
2026-04-26 20:21 40.99957 29.53372 19774 ft 396 kts 350°
2026-04-26 20:21 41.02677 29.52891 19466 ft 394 kts 350°
2026-04-26 20:21 41.05385 29.52415 19152 ft 391 kts 350°
2026-04-26 20:22 41.08079 29.51943 18848 ft 390 kts 350°
2026-04-26 20:22 41.10760 29.51473 18539 ft 388 kts 350°
2026-04-26 20:22 41.13431 29.51004 18234 ft 386 kts 350°
2026-04-26 20:22 41.16090 29.50537 17877 ft 384 kts 350°
2026-04-26 20:23 41.18734 29.50071 17520 ft 382 kts 350°
2026-04-26 20:23 41.21365 29.49608 17169 ft 380 kts 350°
2026-04-26 20:23 41.23985 29.49147 16850 ft 378 kts 350°
2026-04-26 20:23 41.26589 29.48687 16508 ft 377 kts 350°
2026-04-26 20:24 41.29177 29.48231 16169 ft 375 kts 350°
2026-04-26 20:24 41.31757 29.47775 15834 ft 373 kts 350°
2026-04-26 20:24 41.34322 29.47322 15526 ft 371 kts 350°
2026-04-26 20:24 41.36875 29.46870 15200 ft 369 kts 350°
2026-04-26 20:25 41.39416 29.46420 14885 ft 368 kts 350°
2026-04-26 20:25 41.40273 29.46268 14774 ft 367 kts 350°
2026-04-26 20:25 41.44310 29.44765 14109 ft 361 kts 332°
2026-04-26 20:25 41.46354 29.42893 13619 ft 356 kts 316°
2026-04-26 20:26 41.47813 29.40268 13095 ft 353 kts 296°
2026-04-26 20:26 41.48717 29.37238 12577 ft 351 kts 289°
2026-04-26 20:26 41.49494 29.34156 12065 ft 350 kts 289°
2026-04-26 20:26 41.50253 29.31082 11569 ft 348 kts 289°
2026-04-26 20:27 41.51007 29.28028 11079 ft 346 kts 289°
2026-04-26 20:27 41.51759 29.24986 10578 ft 344 kts 289°
2026-04-26 20:27 41.52506 29.21965 10101 ft 342 kts 289°
2026-04-26 20:27 41.53237 29.19005 9587 ft 337 kts 289°
2026-04-26 20:28 41.53964 29.16061 9080 ft 330 kts 289°
2026-04-26 20:28 41.54685 29.13139 8559 ft 324 kts 289°
2026-04-26 20:28 41.55373 29.10349 8059 ft 318 kts 289°
2026-04-26 20:28 41.56057 29.07572 7559 ft 312 kts 289°
2026-04-26 20:29 41.56729 29.04840 7066 ft 307 kts 290°
2026-04-26 20:29 41.57388 29.02158 6580 ft 302 kts 290°
2026-04-26 20:29 41.58037 28.99513 6079 ft 297 kts 290°
2026-04-26 20:29 41.58595 28.96875 5576 ft 295 kts 283°
2026-04-26 20:30 41.58773 28.95045 5239 ft 293 kts 278°
2026-04-26 20:30 41.58902 28.92376 4751 ft 290 kts 276°
2026-04-26 20:30 41.59001 28.89697 4265 ft 287 kts 276°
2026-04-26 20:30 41.59092 28.87042 4029 ft 275 kts 276°
2026-04-26 20:31 41.59165 28.84603 3984 ft 257 kts 276°
2026-04-26 20:31 41.59220 28.82307 3983 ft 238 kts 276°
2026-04-26 20:31 41.59256 28.80173 3982 ft 221 kts 276°
2026-04-26 20:31 41.58953 28.78224 3992 ft 216 kts 248°
2026-04-26 20:32 41.57992 28.76668 4004 ft 219 kts 229°
2026-04-26 20:32 41.56851 28.75295 3994 ft 222 kts 226°
2026-04-26 20:32 41.55682 28.73944 3993 ft 222 kts 226°
2026-04-26 20:32 41.54436 28.72713 3992 ft 227 kts 210°
2026-04-26 20:33 41.52940 28.72236 3990 ft 217 kts 186°
2026-04-26 20:33 41.51457 28.72269 3993 ft 213 kts 180°
2026-04-26 20:33 41.49978 28.72328 3992 ft 212 kts 181°
2026-04-26 20:33 41.48500 28.72357 3849 ft 213 kts 182°
2026-04-26 20:34 41.47019 28.72369 3593 ft 213 kts 182°
2026-04-26 20:34 41.45542 28.72398 3288 ft 212 kts 181°
2026-04-26 20:34 41.44073 28.72430 2987 ft 211 kts 181°
2026-04-26 20:34 41.42608 28.72458 2710 ft 209 kts 182°
2026-04-26 20:35 41.41166 28.72485 2417 ft 205 kts 183°
2026-04-26 20:35 41.39763 28.72513 2135 ft 198 kts 183°
2026-04-26 20:35 41.38421 28.72541 1876 ft 186 kts 184°
2026-04-26 20:35 41.37182 28.72564 1655 ft 172 kts 184°
2026-04-26 20:36 41.36019 28.72586 1429 ft 162 kts 184°
2026-04-26 20:36 41.35008 28.72605 1256 ft 154 kts 183°
2026-04-26 20:36 41.33995 28.72624 1060 ft 146 kts 182°
2026-04-26 20:36 41.33003 28.72644 854 ft 140 kts 182°
2026-04-26 20:37 41.32052 28.72663 686 ft 137 kts 181°
2026-04-26 20:37 41.31109 28.72678 486 ft 134 kts 180°
2026-04-26 20:37 41.30176 28.72708 322 ft 134 kts 181°
2026-04-26 20:37 41.29245 28.72728 249 ft 132 kts 181°
2026-04-26 20:38 41.28428 28.72730 266 ft 90 kts 180°
2026-04-26 20:38 41.28168 28.72738 276 ft 5 kts 184°
2026-04-26 20:38 41.28126 28.72737 277 ft 8 kts 180°
2026-04-26 20:38 41.28045 28.72738 279 ft 16 kts 180°
2026-04-26 20:39 41.27910 28.72761 283 ft 23 kts 164°
2026-04-26 20:39 41.27748 28.72860 298 ft 26 kts 149°
2026-04-26 20:39 41.27593 28.72968 304 ft 23 kts 161°
2026-04-26 20:39 41.27445 28.72979 307 ft 21 kts 179°
2026-04-26 20:40 41.27326 28.72981 310 ft 0 kts 180°
2026-04-26 20:40 41.27318 28.72981 310 ft 5 kts 180°
2026-04-26 20:41 41.27239 28.72983 312 ft 17 kts 179°
2026-04-26 20:41 41.27102 28.72985 314 ft 19 kts 179°
2026-04-26 20:41 41.27043 28.73093 315 ft 17 kts 95°
2026-04-26 20:41 41.27042 28.73257 316 ft 18 kts 89°
2026-04-26 20:42 41.27045 28.73438 317 ft 21 kts 89°
2026-04-26 20:42 41.27047 28.73646 316 ft 24 kts 89°
2026-04-26 20:42 41.27035 28.73871 316 ft 21 kts 127°
2026-04-26 20:42 41.26921 28.73873 318 ft 16 kts 189°
2026-04-26 20:43 41.26809 28.73875 315 ft 17 kts 180°
2026-04-26 20:43 41.26719 28.73831 317 ft 9 kts 256°
2026-04-26 20:43 41.26725 28.73764 317 ft 0 kts 272°